Simultaneous Nadir Overpasses (SNOs) Predictions

Prediction of SNOs between FY3D and TERRA Satellite Orbit:

Table of predicted SNOs for the next 14.0 days since TLE Epoch: 8/17/2024
Index Date (FY3D) Time (FY3D) Lat,Lon (FY3D) SZA (FY3D ) Date (TERRA) Time (TERRA) Lat,Lon (TERRA) SZA (TERRA ) Distance(km) Time Diff (sec)
1 08/17/2024 09:41:50 -76.31,-146.11 116.96 08/17/2024 09:43:01 -76.17,-145.12 117.11 30.28 71
2 08/17/2024 10:32:31 76.05, 22.11 62.79 08/17/2024 10:32:24 76.05, 22.19 62.79 2.14 7
3 08/17/2024 11:23:01 -75.42,-168.44 117.84 08/17/2024 11:21:56 -75.50,-171.74 117.74 92.50 65
4 08/19/2024 20:54:42 -76.50, 45.01 115.96 08/19/2024 20:55:50 -76.42, 47.39 116.06 62.84 68
5 08/19/2024 21:45:19 76.07,-146.11 63.62 08/19/2024 21:45:18 76.05,-146.09 63.59 2.93 1
6 08/19/2024 22:35:54 -75.67, 22.61 116.78 08/19/2024 22:34:45 -75.75, 20.70 116.69 53.14 69
7 08/22/2024 08:07:34 -76.71,-123.97 114.92 08/22/2024 08:08:38 -76.64,-120.14 115.00 98.53 64
8 08/22/2024 08:58:06 76.07, 45.76 64.44 08/22/2024 08:58:10 76.07, 45.72 64.44 1.06 4
9 08/22/2024 09:48:46 -75.89,-146.28 115.74 08/22/2024 09:47:34 -75.93,-147.04 115.70 21.18 72
10 08/24/2024 20:10:53 76.08,-122.43 65.29 08/24/2024 20:11:01 76.07,-122.53 65.28 2.92 8
11 08/24/2024 21:01:36 -76.03, 45.07 114.75 08/24/2024 21:00:23 -76.03, 45.02 114.75 1.40 73
12 08/27/2024 07:23:40 76.11, 69.31 66.19 08/27/2024 07:23:50 76.10, 69.31 66.17 1.94 10
13 08/27/2024 08:14:23 -76.06,-123.17 113.86 08/27/2024 08:13:12 -76.06,-123.13 113.86 1.23 71
14 08/29/2024 18:36:25 76.12, -98.85 67.07 08/29/2024 18:36:37 76.10, -98.91 67.05 2.77 12



Historial Predications of SNOs between FY3D and TERRA
